Time,TemperatureF,DewpointF,PressureIn,WindDirection,WindDirectionDegrees,WindSpeedMPH,WindSpeedGustMPH,Humidity,HourlyPrecipIn,Conditions,Clouds,dailyrainin,SoftwareType,DateUTC
2013-02-06 00:00:00,29.5,25.2,29.32,North,353,0.0,0.0,84,0.00,,---,0.00,VWS V13.00,2013-02-06 09:00:00,
2013-02-06 00:05:00,29.5,25.5,29.29,North,353,0.0,0.0,85,0.00,,---,0.00,VWS V13.00,2013-02-06 09:05:00,
2013-02-06 00:10:00,29.5,25.5,29.29,North,353,0.0,0.0,85,0.00,,---,0.00,VWS V13.00,2013-02-06 09:10:00,
2013-02-06 00:15:00,29.5,25.5,29.29,North,353,0.0,0.0,85,0.00,,---,0.00,VWS V13.00,2013-02-06 09:15:00,
2013-02-06 00:20:00,29.3,25.4,29.29,North,353,0.0,0.0,85,0.00,,---,0.00,VWS V13.00,2013-02-06 09:20:00,
2013-02-06 00:25:00,29.3,25.4,29.29,North,353,0.0,0.0,85,0.00,,---,0.00,VWS V13.00,2013-02-06 09:25:00,
2013-02-06 00:30:00,29.3,25.4,29.29,North,353,0.0,0.0,85,0.00,,---,0.00,VWS V13.00,2013-02-06 09:30:00,
2013-02-06 00:35:00,29.3,25.4,29.29,North,353,0.0,0.0,85,0.00,,---,0.00,VWS V13.00,2013-02-06 09:35:00,
2013-02-06 00:40:00,29.3,25.4,29.29,North,353,0.0,0.0,85,0.00,,---,0.00,VWS V13.00,2013-02-06 09:40:00,
2013-02-06 00:45:00,29.3,25.4,29.29,North,353,0.0,0.0,85,0.00,,---,0.00,VWS V13.00,2013-02-06 09:45:00,
2013-02-06 00:50:00,28.9,25.0,29.29,North,353,0.0,0.0,85,0.00,,---,0.00,VWS V13.00,2013-02-06 09:50:00,
2013-02-06 00:55:00,28.8,24.8,29.29,North,353,0.0,0.0,85,0.00,,---,0.00,VWS V13.00,2013-02-06 09:55:00,
2013-02-06 01:00:00,28.8,24.8,29.29,North,353,0.0,0.0,85,0.00,,---,0.00,VWS V13.00,2013-02-06 10:00:00,
2013-02-06 01:05:00,28.8,25.1,29.32,North,353,0.0,0.0,86,0.00,,---,0.00,VWS V13.00,2013-02-06 10:05:00,
2013-02-06 01:10:00,28.6,24.9,29.32,North,353,0.0,0.0,86,0.00,,---,0.00,VWS V13.00,2013-02-06 10:10:00,
2013-02-06 01:15:00,28.6,24.9,29.32,North,353,0.0,0.0,86,0.00,,---,0.00,VWS V13.00,2013-02-06 10:15:00,
2013-02-06 01:20:00,28.8,25.4,29.32,North,353,0.0,0.0,87,0.00,,---,0.00,VWS V13.00,2013-02-06 10:20:00,
2013-02-06 01:25:00,28.6,25.2,29.32,North,353,0.0,0.0,87,0.00,,---,0.00,VWS V13.00,2013-02-06 10:25:00,
2013-02-06 01:30:00,28.4,25.3,29.32,North,353,0.0,0.0,88,0.00,,---,0.00,VWS V13.00,2013-02-06 10:30:00,
2013-02-06 01:35:00,28.2,25.1,29.32,North,353,0.0,0.0,88,0.00,,---,0.00,VWS V13.00,2013-02-06 10:35:00,
2013-02-06 01:40:00,28.4,25.3,29.32,North,353,0.0,0.0,88,0.00,,---,0.00,VWS V13.00,2013-02-06 10:40:00,
2013-02-06 01:45:00,28.4,25.3,29.32,North,353,0.0,0.0,88,0.00,,---,0.00,VWS V13.00,2013-02-06 10:45:00,
2013-02-06 01:50:00,28.4,25.3,29.32,North,353,0.0,0.0,88,0.00,,---,0.00,VWS V13.00,2013-02-06 10:50:00,
2013-02-06 01:55:00,28.6,25.5,29.32,North,353,0.0,0.0,88,0.00,,---,0.00,VWS V13.00,2013-02-06 10:55:00,
2013-02-06 02:00:00,28.9,26.1,29.32,North,353,0.0,0.0,89,0.00,,---,0.00,VWS V13.00,2013-02-06 11:00:00,
2013-02-06 02:05:00,29.1,26.3,29.32,North,353,0.0,0.0,89,0.00,,---,0.00,VWS V13.00,2013-02-06 11:05:00,
2013-02-06 02:10:00,29.3,26.5,29.32,North,353,0.0,0.0,89,0.00,,---,0.00,VWS V13.00,2013-02-06 11:10:00,
2013-02-06 02:15:00,29.1,26.3,29.32,North,353,0.0,0.0,89,0.00,,---,0.00,VWS V13.00,2013-02-06 11:15:00,
2013-02-06 02:20:00,28.9,25.8,29.32,North,353,0.0,0.0,88,0.00,,---,0.00,VWS V13.00,2013-02-06 11:20:00,
2013-02-06 02:25:00,28.9,26.1,29.32,North,353,0.0,0.0,89,0.00,,---,0.00,VWS V13.00,2013-02-06 11:25:00,
2013-02-06 02:30:00,29.1,26.3,29.32,North,353,0.0,0.0,89,0.00,,---,0.00,VWS V13.00,2013-02-06 11:30:00,
2013-02-06 02:35:00,29.3,26.5,29.32,North,353,0.0,0.0,89,0.00,,---,0.00,VWS V13.00,2013-02-06 11:35:00,
2013-02-06 02:40:00,29.3,26.5,29.32,North,353,0.0,0.0,89,0.00,,---,0.00,VWS V13.00,2013-02-06 11:40:00,
2013-02-06 02:45:00,29.3,26.5,29.32,North,353,0.0,0.0,89,0.00,,---,0.00,VWS V13.00,2013-02-06 11:45:00,
2013-02-06 02:50:00,30.4,27.8,29.32,North,353,0.0,0.0,90,0.00,,---,0.00,VWS V13.00,2013-02-06 11:50:00,
2013-02-06 02:55:00,31.3,28.7,29.32,North,353,0.0,0.0,90,0.00,,---,0.00,VWS V13.00,2013-02-06 11:55:00,
2013-02-06 03:00:00,31.6,29.0,29.32,North,353,0.0,0.0,90,0.00,,---,0.00,VWS V13.00,2013-02-06 12:00:00,
2013-02-06 03:05:00,31.8,29.2,29.32,North,353,0.0,0.0,90,0.00,,---,0.00,VWS V13.00,2013-02-06 12:05:00,
2013-02-06 03:10:00,32.0,29.1,29.32,NNW,338,0.0,0.0,89,0.00,,---,0.00,VWS V13.00,2013-02-06 12:10:00,
2013-02-06 03:15:00,32.2,28.8,29.32,North,357,0.0,0.0,87,0.00,,---,0.00,VWS V13.00,2013-02-06 12:15:00,
2013-02-06 03:20:00,32.7,28.4,29.32,NNW,348,0.0,0.0,84,0.00,,---,0.00,VWS V13.00,2013-02-06 12:20:00,
2013-02-06 03:25:00,32.4,27.8,29.32,NNW,342,0.0,0.0,83,0.00,,---,0.00,VWS V13.00,2013-02-06 12:25:00,
2013-02-06 03:30:00,32.2,26.4,29.32,NW,320,0.0,0.0,79,0.00,,---,0.00,VWS V13.00,2013-02-06 12:30:00,
2013-02-06 03:35:00,32.2,25.2,29.32,NNW,336,0.0,0.0,75,0.00,,---,0.00,VWS V13.00,2013-02-06 12:35:00,
2013-02-06 03:40:00,32.5,21.4,29.32,NNW,333,0.0,0.0,63,0.00,,---,0.00,VWS V13.00,2013-02-06 12:40:00,
2013-02-06 03:45:00,32.7,20.8,29.32,NNW,335,0.0,0.0,61,0.00,,---,0.00,VWS V13.00,2013-02-06 12:45:00,
2013-02-06 03:50:00,32.7,20.4,29.32,North,2,0.0,0.0,60,0.00,,---,0.00,VWS V13.00,2013-02-06 12:50:00,
2013-02-06 03:55:00,32.7,20.8,29.32,NNW,336,0.0,0.0,61,0.00,,---,0.00,VWS V13.00,2013-02-06 12:55:00,
2013-02-06 04:00:00,32.5,21.7,29.32,North,353,0.0,0.0,64,0.00,,---,0.00,VWS V13.00,2013-02-06 13:00:00,
2013-02-06 04:05:00,32.4,22.6,29.32,North,353,0.0,0.0,67,0.00,,---,0.00,VWS V13.00,2013-02-06 13:05:00,
2013-02-06 04:10:00,32.2,22.5,29.32,North,8,0.0,0.0,67,0.00,,---,0.00,VWS V13.00,2013-02-06 13:10:00,
2013-02-06 04:15:00,32.0,22.3,29.32,NW,326,0.0,0.0,67,0.00,,---,0.00,VWS V13.00,2013-02-06 13:15:00,
2013-02-06 04:20:00,32.0,22.3,29.32,North,357,0.0,0.0,67,0.00,,---,0.00,VWS V13.00,2013-02-06 13:20:00,
2013-02-06 04:25:00,31.8,21.8,29.32,North,5,0.0,0.0,66,0.00,,---,0.00,VWS V13.00,2013-02-06 13:25:00,
2013-02-06 04:30:00,31.6,21.2,29.32,North,357,0.0,0.0,65,0.00,,---,0.00,VWS V13.00,2013-02-06 13:30:00,
2013-02-06 04:35:00,31.6,20.9,29.32,NE,37,0.0,0.0,64,0.00,,---,0.00,VWS V13.00,2013-02-06 13:35:00,
2013-02-06 04:40:00,31.5,20.7,29.32,North,2,0.0,0.0,64,0.00,,---,0.00,VWS V13.00,2013-02-06 13:40:00,
2013-02-06 04:45:00,31.3,20.2,29.32,North,2,0.0,0.0,63,0.00,,---,0.00,VWS V13.00,2013-02-06 13:45:00,
2013-02-06 04:50:00,31.1,20.0,29.32,NW,321,0.0,0.0,63,0.00,,---,0.00,VWS V13.00,2013-02-06 13:50:00,
2013-02-06 04:55:00,31.1,19.6,29.32,NNW,329,0.0,0.0,62,0.00,,---,0.00,VWS V13.00,2013-02-06 13:55:00,
2013-02-06 05:00:00,30.9,19.5,29.32,North,357,0.0,0.0,62,0.00,,---,0.00,VWS V13.00,2013-02-06 14:00:00,
2013-02-06 05:05:00,30.7,18.9,29.32,NNE,12,0.0,0.0,61,0.00,,---,0.00,VWS V13.00,2013-02-06 14:05:00,
2013-02-06 05:10:00,30.4,18.9,29.32,NNW,330,0.0,0.0,62,0.00,,---,0.00,VWS V13.00,2013-02-06 14:10:00,
2013-02-06 05:15:00,30.4,18.6,29.32,WNW,298,0.0,0.0,61,0.00,,---,0.00,VWS V13.00,2013-02-06 14:15:00,
2013-02-06 05:20:00,30.2,18.4,29.32,NW,304,0.0,0.0,61,0.00,,---,0.00,VWS V13.00,2013-02-06 14:20:00,
2013-02-06 05:25:00,30.0,18.2,29.32,North,357,0.0,0.0,61,0.00,,---,0.00,VWS V13.00,2013-02-06 14:25:00,
2013-02-06 05:30:00,30.0,17.8,29.32,NNE,17,0.0,0.0,60,0.00,,---,0.00,VWS V13.00,2013-02-06 14:30:00,
2013-02-06 05:35:00,30.0,17.0,29.32,North,357,0.0,0.0,58,0.00,,---,0.00,VWS V13.00,2013-02-06 14:35:00,
2013-02-06 05:40:00,29.8,16.5,29.32,NW,324,0.0,0.0,57,0.00,,---,0.00,VWS V13.00,2013-02-06 14:40:00,
2013-02-06 05:45:00,29.8,16.5,29.32,WNW,300,0.0,0.0,57,0.00,,---,0.00,VWS V13.00,2013-02-06 14:45:00,
2013-02-06 05:50:00,29.5,16.1,29.32,North,2,0.0,0.0,57,0.00,,---,0.00,VWS V13.00,2013-02-06 14:50:00,
2013-02-06 05:55:00,29.3,16.0,29.32,NNE,13,0.0,0.0,57,0.00,,---,0.00,VWS V13.00,2013-02-06 14:55:00,
2013-02-06 06:00:00,28.9,15.6,29.32,NW,316,0.0,0.0,57,0.00,,---,0.00,VWS V13.00,2013-02-06 15:00:00,
2013-02-06 06:05:00,28.9,16.0,29.32,NW,304,0.0,0.0,58,0.00,,---,0.00,VWS V13.00,2013-02-06 15:05:00,
2013-02-06 06:10:00,28.9,15.6,29.32,NW,306,0.0,0.0,57,0.00,,---,0.00,VWS V13.00,2013-02-06 15:10:00,
2013-02-06 06:15:00,29.3,15.6,29.32,WSW,248,0.0,0.0,56,0.00,,---,0.00,VWS V13.00,2013-02-06 15:15:00,
2013-02-06 06:20:00,29.5,15.3,29.32,WSW,254,0.0,0.0,55,0.00,,---,0.00,VWS V13.00,2013-02-06 15:20:00,
2013-02-06 06:25:00,29.5,14.9,29.32,ENE,75,0.0,0.0,54,0.00,,---,0.00,VWS V13.00,2013-02-06 15:25:00,
2013-02-06 06:30:00,29.5,14.5,29.32,NE,37,0.0,0.0,53,0.00,,---,0.00,VWS V13.00,2013-02-06 15:30:00,
2013-02-06 06:35:00,29.5,14.5,29.32,WNW,299,0.0,0.0,53,0.00,,---,0.00,VWS V13.00,2013-02-06 15:35:00,
2013-02-06 06:40:00,29.5,14.9,29.32,ENE,63,0.0,0.0,54,0.00,,---,0.00,VWS V13.00,2013-02-06 15:40:00,
2013-02-06 06:45:00,29.1,15.0,29.32,NE,48,0.0,0.0,55,0.00,,---,0.00,VWS V13.00,2013-02-06 15:45:00,
2013-02-06 06:50:00,28.9,14.8,29.32,North,357,0.0,0.0,55,0.00,,---,0.00,VWS V13.00,2013-02-06 15:50:00,
2013-02-06 06:55:00,28.6,14.5,29.32,NNW,334,0.0,0.0,55,0.00,,---,0.00,VWS V13.00,2013-02-06 15:55:00,
2013-02-06 07:00:00,28.4,14.7,29.32,NNW,331,0.0,0.0,56,0.00,,---,0.00,VWS V13.00,2013-02-06 16:00:00,
2013-02-06 07:05:00,28.2,14.6,29.32,North,11,0.0,0.0,56,0.00,,---,0.00,VWS V13.00,2013-02-06 16:05:00,
2013-02-06 07:10:00,28.6,14.1,29.32,NE,45,0.0,0.0,54,0.00,,---,0.00,VWS V13.00,2013-02-06 16:10:00,
2013-02-06 07:15:00,28.8,13.4,29.32,NW,317,0.0,0.0,52,0.00,,---,0.00,VWS V13.00,2013-02-06 16:15:00,
2013-02-06 07:20:00,28.6,12.8,29.32,NNE,27,0.0,0.0,51,0.00,,---,0.00,VWS V13.00,2013-02-06 16:20:00,
2013-02-06 07:25:00,28.4,13.0,29.32,North,5,0.0,0.0,52,0.00,,---,0.00,VWS V13.00,2013-02-06 16:25:00,
2013-02-06 07:30:00,28.2,12.9,29.32,NNW,337,0.0,0.0,52,0.00,,---,0.00,VWS V13.00,2013-02-06 16:30:00,
2013-02-06 07:35:00,28.2,12.9,29.32,North,9,0.0,0.0,52,0.00,,---,0.00,VWS V13.00,2013-02-06 16:35:00,
2013-02-06 07:40:00,28.0,12.7,29.32,NW,324,0.0,0.0,52,0.00,,---,0.00,VWS V13.00,2013-02-06 16:40:00,
2013-02-06 07:45:00,27.9,12.1,29.32,North,357,0.0,0.0,51,0.00,,---,0.00,VWS V13.00,2013-02-06 16:45:00,
2013-02-06 07:50:00,27.9,12.1,29.32,NNE,29,0.0,0.0,51,0.00,,---,0.00,VWS V13.00,2013-02-06 16:50:00,
2013-02-06 07:55:00,27.9,12.1,29.32,North,10,0.0,0.0,51,0.00,,---,0.00,VWS V13.00,2013-02-06 16:55:00,
2013-02-06 08:00:00,27.7,11.9,29.32,North,1,0.0,0.0,51,0.00,,---,0.00,VWS V13.00,2013-02-06 17:00:00,
2013-02-06 08:05:00,27.3,12.0,29.32,NNW,333,0.0,0.0,52,0.00,,---,0.00,VWS V13.00,2013-02-06 17:05:00,
2013-02-06 08:10:00,27.3,12.0,29.32,NNW,337,0.0,0.0,52,0.00,,---,0.00,VWS V13.00,2013-02-06 17:10:00,
2013-02-06 08:15:00,27.1,11.9,29.32,North,1,0.0,0.0,52,0.00,,---,0.00,VWS V13.00,2013-02-06 17:15:00,
2013-02-06 08:20:00,27.0,11.3,29.32,NNW,340,0.0,0.0,51,0.00,,---,0.00,VWS V13.00,2013-02-06 17:20:00,
2013-02-06 08:25:00,27.0,11.3,29.32,North,353,0.0,0.0,51,0.00,,---,0.00,VWS V13.00,2013-02-06 17:25:00,
2013-02-06 08:30:00,26.8,11.1,29.32,North,1,0.0,0.0,51,0.00,,---,0.00,VWS V13.00,2013-02-06 17:30:00,
2013-02-06 08:35:00,26.6,11.4,29.32,North,1,0.0,0.0,52,0.00,,---,0.00,VWS V13.00,2013-02-06 17:35:00,
2013-02-06 08:40:00,26.2,11.0,29.32,NW,318,0.0,0.0,52,0.00,,---,0.00,VWS V13.00,2013-02-06 17:40:00,
2013-02-06 08:45:00,26.1,11.3,29.32,North,353,0.0,0.0,53,0.00,,---,0.00,VWS V13.00,2013-02-06 17:45:00,
2013-02-06 08:50:00,26.1,11.3,29.35,NNE,17,0.0,0.0,53,0.00,,---,0.00,VWS V13.00,2013-02-06 17:50:00,
2013-02-06 08:55:00,26.1,10.9,29.35,NNW,345,0.0,0.0,52,0.00,,---,0.00,VWS V13.00,2013-02-06 17:55:00,
2013-02-06 09:00:00,25.9,10.7,29.35,North,353,0.0,0.0,52,0.00,,---,0.00,VWS V13.00,2013-02-06 18:00:00,
2013-02-06 09:05:00,25.7,10.5,29.35,North,349,0.0,0.0,52,0.00,,---,0.00,VWS V13.00,2013-02-06 18:05:00,
2013-02-06 09:10:00,25.7,10.5,29.35,NNW,341,0.0,0.0,52,0.00,,---,0.00,VWS V13.00,2013-02-06 18:10:00,
2013-02-06 09:15:00,25.5,9.9,29.35,NNW,334,0.0,0.0,51,0.00,,---,0.00,VWS V13.00,2013-02-06 18:15:00,
2013-02-06 09:20:00,25.5,9.5,29.35,ENE,62,0.0,0.0,50,0.00,,---,0.00,VWS V13.00,2013-02-06 18:20:00,
2013-02-06 09:25:00,25.5,9.5,29.35,NE,53,0.0,0.0,50,0.00,,---,0.00,VWS V13.00,2013-02-06 18:25:00,
2013-02-06 09:30:00,25.5,9.5,29.35,NNE,17,0.0,0.0,50,0.00,,---,0.00,VWS V13.00,2013-02-06 18:30:00,
2013-02-06 09:35:00,25.5,9.0,29.35,ENE,73,0.0,0.0,49,0.00,,---,0.00,VWS V13.00,2013-02-06 18:35:00,
2013-02-06 09:40:00,25.5,9.0,29.35,North,1,0.0,0.0,49,0.00,,---,0.00,VWS V13.00,2013-02-06 18:40:00,
2013-02-06 09:45:00,25.7,9.2,29.35,NW,311,0.0,0.0,49,0.00,,---,0.00,VWS V13.00,2013-02-06 18:45:00,
2013-02-06 09:50:00,25.7,9.2,29.35,NNW,338,0.0,0.0,49,0.00,,---,0.00,VWS V13.00,2013-02-06 18:50:00,
2013-02-06 09:55:00,25.7,8.7,29.35,NW,321,0.0,0.0,48,0.00,,---,0.00,VWS V13.00,2013-02-06 18:55:00,
2013-02-06 10:00:00,25.7,8.7,29.38,WNW,286,0.0,0.0,48,0.00,,---,0.00,VWS V13.00,2013-02-06 19:00:00,
2013-02-06 10:05:00,25.9,8.4,29.38,NW,325,0.0,0.0,47,0.00,,---,0.00,VWS V13.00,2013-02-06 19:05:00,
2013-02-06 10:10:00,25.9,8.9,29.38,ENE,70,0.0,0.0,48,0.00,,---,0.00,VWS V13.00,2013-02-06 19:10:00,
2013-02-06 10:15:00,25.9,8.9,29.38,NE,49,0.0,0.0,48,0.00,,---,0.00,VWS V13.00,2013-02-06 19:15:00,
2013-02-06 10:20:00,26.1,9.1,29.38,ENE,68,0.0,0.0,48,0.00,,---,0.00,VWS V13.00,2013-02-06 19:20:00,
2013-02-06 10:25:00,26.1,8.6,29.38,ENE,65,0.0,0.0,47,0.00,,---,0.00,VWS V13.00,2013-02-06 19:25:00,
2013-02-06 10:30:00,26.1,8.6,29.38,ENE,74,0.0,0.0,47,0.00,,---,0.00,VWS V13.00,2013-02-06 19:30:00,
2013-02-06 10:35:00,26.1,8.6,29.38,North,6,0.0,0.0,47,0.00,,---,0.00,VWS V13.00,2013-02-06 19:35:00,
2013-02-06 10:40:00,26.1,8.1,29.38,East,99,0.0,0.0,46,0.00,,---,0.00,VWS V13.00,2013-02-06 19:40:00,
2013-02-06 10:45:00,26.4,8.9,29.38,NW,309,0.0,0.0,47,0.00,,---,0.00,VWS V13.00,2013-02-06 19:45:00,
2013-02-06 10:50:00,26.6,9.1,29.38,ENE,69,0.0,0.0,47,0.00,,---,0.00,VWS V13.00,2013-02-06 19:50:00,
2013-02-06 10:55:00,26.4,8.0,29.38,ESE,102,0.0,0.0,45,0.00,,---,0.00,VWS V13.00,2013-02-06 19:55:00,
2013-02-06 11:00:00,26.4,8.0,29.38,East,84,0.0,0.0,45,0.00,,---,0.00,VWS V13.00,2013-02-06 20:00:00,
2013-02-06 11:05:00,26.4,8.0,29.38,NNE,18,0.0,0.0,45,0.00,,---,0.00,VWS V13.00,2013-02-06 20:05:00,
2013-02-06 11:10:00,26.4,8.0,29.38,ESE,104,0.0,0.0,45,0.00,,---,0.00,VWS V13.00,2013-02-06 20:10:00,
2013-02-06 11:15:00,26.6,8.6,29.38,NW,324,0.0,0.0,46,0.00,,---,0.00,VWS V13.00,2013-02-06 20:15:00,
2013-02-06 11:20:00,26.8,8.3,29.38,East,80,0.0,0.0,45,0.00,,---,0.00,VWS V13.00,2013-02-06 20:20:00,
2013-02-06 11:25:00,27.0,8.5,29.38,East,80,0.0,0.0,45,0.00,,---,0.00,VWS V13.00,2013-02-06 20:25:00,
2013-02-06 11:30:00,27.0,8.5,29.38,NE,48,0.0,0.0,45,0.00,,---,0.00,VWS V13.00,2013-02-06 20:30:00,
2013-02-06 11:35:00,27.3,9.3,29.38,NNW,346,0.0,0.0,46,0.00,,---,0.00,VWS V13.00,2013-02-06 20:35:00,
2013-02-06 11:40:00,27.5,9.0,29.38,WNW,297,0.0,0.0,45,0.00,,---,0.00,VWS V13.00,2013-02-06 20:40:00,
2013-02-06 11:45:00,28.0,9.9,29.38,NW,317,0.0,0.0,46,0.00,,---,0.00,VWS V13.00,2013-02-06 20:45:00,
2013-02-06 11:50:00,28.2,10.1,29.38,NNE,14,0.0,0.0,46,0.00,,---,0.00,VWS V13.00,2013-02-06 20:50:00,
2013-02-06 11:55:00,28.6,9.9,29.38,ENE,71,0.0,0.0,45,0.00,,---,0.00,VWS V13.00,2013-02-06 20:55:00,
2013-02-06 12:00:00,28.6,9.4,29.38,WSW,255,0.0,0.0,44,0.00,,---,0.00,VWS V13.00,2013-02-06 21:00:00,
2013-02-06 12:05:00,28.6,9.4,29.38,NE,56,0.0,0.0,44,0.00,,---,0.00,VWS V13.00,2013-02-06 21:05:00,
2013-02-06 12:10:00,28.6,9.4,29.38,NW,305,0.0,0.0,44,0.00,,---,0.00,VWS V13.00,2013-02-06 21:10:00,
2013-02-06 12:15:00,28.9,9.3,29.38,East,83,0.0,0.0,43,0.00,,---,0.00,VWS V13.00,2013-02-06 21:15:00,
2013-02-06 12:20:00,28.9,9.3,29.38,NNE,15,0.0,0.0,43,0.00,,---,0.00,VWS V13.00,2013-02-06 21:20:00,
2013-02-06 12:25:00,29.3,9.6,29.41,WNW,288,0.0,0.0,43,0.00,,---,0.00,VWS V13.00,2013-02-06 21:25:00,
2013-02-06 12:30:00,29.5,9.2,29.41,North,350,0.0,0.0,42,0.00,,---,0.00,VWS V13.00,2013-02-06 21:30:00,
2013-02-06 12:35:00,29.5,9.2,29.41,NNW,346,0.0,0.0,42,0.00,,---,0.00,VWS V13.00,2013-02-06 21:35:00,
2013-02-06 12:40:00,29.3,9.1,29.41,NW,313,0.0,0.0,42,0.00,,---,0.00,VWS V13.00,2013-02-06 21:40:00,
2013-02-06 12:45:00,29.3,9.1,29.41,North,353,0.0,0.0,42,0.00,,---,0.00,VWS V13.00,2013-02-06 21:45:00,
2013-02-06 12:50:00,29.5,9.2,29.41,NNW,335,0.0,0.0,42,0.00,,---,0.00,VWS V13.00,2013-02-06 21:50:00,
2013-02-06 12:55:00,29.5,9.2,29.41,WNW,293,0.0,0.0,42,0.00,,---,0.00,VWS V13.00,2013-02-06 21:55:00,
2013-02-06 13:00:00,30.0,9.7,29.41,North,353,0.0,0.0,42,0.00,,---,0.00,VWS V13.00,2013-02-06 22:00:00,
2013-02-06 13:05:00,29.5,9.2,29.41,ENE,73,0.0,0.0,42,0.00,,---,0.00,VWS V13.00,2013-02-06 22:05:00,
2013-02-06 13:10:00,29.5,9.2,29.41,NW,309,0.0,0.0,42,0.00,,---,0.00,VWS V13.00,2013-02-06 22:10:00,
2013-02-06 13:15:00,29.1,8.9,29.41,North,1,0.0,0.0,42,0.00,,---,0.00,VWS V13.00,2013-02-06 22:15:00,
2013-02-06 13:20:00,29.1,8.9,29.41,NNW,331,0.0,0.0,42,0.00,,---,0.00,VWS V13.00,2013-02-06 22:20:00,
2013-02-06 13:25:00,29.1,8.9,29.41,NW,307,0.0,0.0,42,0.00,,---,0.00,VWS V13.00,2013-02-06 22:25:00,
2013-02-06 13:30:00,29.1,8.9,29.41,NE,37,0.0,0.0,42,0.00,,---,0.00,VWS V13.00,2013-02-06 22:30:00,
2013-02-06 13:35:00,28.9,9.3,29.41,NNW,329,0.0,0.0,43,0.00,,---,0.00,VWS V13.00,2013-02-06 22:35:00,
2013-02-06 13:40:00,29.1,8.9,29.41,NW,313,0.0,0.0,42,0.00,,---,0.00,VWS V13.00,2013-02-06 22:40:00,
2013-02-06 13:45:00,29.5,9.8,29.41,NNE,16,0.0,0.0,43,0.00,,---,0.00,VWS V13.00,2013-02-06 22:45:00,
2013-02-06 13:50:00,28.8,8.0,29.41,NNE,16,0.0,0.0,41,0.00,,---,0.00,VWS V13.00,2013-02-06 22:50:00,
2013-02-06 13:55:00,28.6,7.9,29.41,North,11,0.0,0.0,41,0.00,,---,0.00,VWS V13.00,2013-02-06 22:55:00,
2013-02-06 14:00:00,28.2,8.1,29.41,NW,322,0.0,0.0,42,0.00,,---,0.00,VWS V13.00,2013-02-06 23:00:00,
2013-02-06 14:05:00,28.6,8.9,29.41,North,5,0.0,0.0,43,0.00,,---,0.00,VWS V13.00,2013-02-06 23:05:00,
2013-02-06 14:10:00,28.6,8.4,29.41,NNE,19,0.0,0.0,42,0.00,,---,0.00,VWS V13.00,2013-02-06 23:10:00,
2013-02-06 14:15:00,29.3,9.1,29.41,NW,311,0.0,0.0,42,0.00,,---,0.00,VWS V13.00,2013-02-06 23:15:00,
2013-02-06 14:20:00,29.3,9.1,29.41,NW,322,0.0,0.0,42,0.00,,---,0.00,VWS V13.00,2013-02-06 23:20:00,
2013-02-06 14:25:00,29.3,9.1,29.41,NNE,12,0.0,0.0,42,0.00,,---,0.00,VWS V13.00,2013-02-06 23:25:00,
2013-02-06 14:30:00,29.3,9.1,29.41,North,1,0.0,0.0,42,0.00,,---,0.00,VWS V13.00,2013-02-06 23:30:00,
2013-02-06 14:35:00,29.7,9.4,29.41,North,8,0.0,0.0,42,0.00,,---,0.00,VWS V13.00,2013-02-06 23:35:00,
2013-02-06 14:40:00,29.7,9.4,29.41,ENE,76,0.0,0.0,42,0.00,,---,0.00,VWS V13.00,2013-02-06 23:40:00,
2013-02-06 14:45:00,29.1,8.9,29.41,NNW,344,0.0,0.0,42,0.00,,---,0.00,VWS V13.00,2013-02-06 23:45:00,
2013-02-06 14:50:00,29.3,9.1,29.41,NNW,334,0.0,0.0,42,0.00,,---,0.00,VWS V13.00,2013-02-06 23:50:00,
2013-02-06 14:55:00,29.3,9.1,29.41,North,353,0.0,0.0,42,0.00,,---,0.00,VWS V13.00,2013-02-06 23:55:00,
2013-02-06 15:00:00,29.7,9.4,29.41,WNW,289,0.0,0.0,42,0.00,,---,0.00,VWS V13.00,2013-02-07 00:00:00,
2013-02-06 15:05:00,29.7,9.4,29.41,North,357,0.0,0.0,42,0.00,,---,0.00,VWS V13.00,2013-02-07 00:05:00,
2013-02-06 15:10:00,30.0,9.2,29.41,North,353,0.0,0.0,41,0.00,,---,0.00,VWS V13.00,2013-02-07 00:10:00,
2013-02-06 15:15:00,30.0,9.2,29.41,NNW,330,0.0,0.0,41,0.00,,---,0.00,VWS V13.00,2013-02-07 00:15:00,
2013-02-06 15:20:00,29.7,9.4,29.41,North,1,0.0,0.0,42,0.00,,---,0.00,VWS V13.00,2013-02-07 00:20:00,
2013-02-06 15:25:00,28.9,8.7,29.41,NNW,341,0.0,0.0,42,0.00,,---,0.00,VWS V13.00,2013-02-07 00:25:00,
2013-02-06 15:30:00,28.8,8.6,29.41,NNE,17,0.0,0.0,42,0.00,,---,0.00,VWS V13.00,2013-02-07 00:30:00,
2013-02-06 15:35:00,28.6,8.4,29.41,NNW,328,0.0,0.0,42,0.00,,---,0.00,VWS V13.00,2013-02-07 00:35:00,
2013-02-06 15:40:00,28.6,8.4,29.41,North,9,0.0,0.0,42,0.00,,---,0.00,VWS V13.00,2013-02-07 00:40:00,
2013-02-06 15:45:00,28.6,8.4,29.41,NNE,29,0.0,0.0,42,0.00,,---,0.00,VWS V13.00,2013-02-07 00:45:00,
2013-02-06 15:50:00,28.2,7.6,29.41,North,353,0.0,0.0,41,0.00,,---,0.00,VWS V13.00,2013-02-07 00:50:00,
2013-02-06 15:55:00,28.4,8.2,29.41,NNE,19,0.0,0.0,42,0.00,,---,0.00,VWS V13.00,2013-02-07 00:55:00,
2013-02-06 16:00:00,28.2,8.1,29.41,NW,317,0.0,0.0,42,0.00,,---,0.00,VWS V13.00,2013-02-07 01:00:00,
2013-02-06 16:05:00,28.2,8.1,29.41,NW,310,0.0,0.0,42,0.00,,---,0.00,VWS V13.00,2013-02-07 01:05:00,
2013-02-06 16:10:00,28.2,8.1,29.41,WNW,303,0.0,0.0,42,0.00,,---,0.00,VWS V13.00,2013-02-07 01:10:00,
2013-02-06 16:15:00,28.2,8.1,29.41,NW,325,0.0,0.0,42,0.00,,---,0.00,VWS V13.00,2013-02-07 01:15:00,
2013-02-06 16:20:00,28.8,8.0,29.41,North,1,0.0,0.0,41,0.00,,---,0.00,VWS V13.00,2013-02-07 01:20:00,
2013-02-06 16:25:00,28.6,7.9,29.41,NNW,330,0.0,0.0,41,0.00,,---,0.00,VWS V13.00,2013-02-07 01:25:00,
2013-02-06 16:30:00,28.6,7.9,29.41,North,10,0.0,0.0,41,0.00,,---,0.00,VWS V13.00,2013-02-07 01:30:00,
2013-02-06 16:35:00,28.0,7.9,29.41,NE,42,0.0,0.0,42,0.00,,---,0.00,VWS V13.00,2013-02-07 01:35:00,
2013-02-06 16:40:00,28.0,7.9,29.41,NNW,343,0.0,0.0,42,0.00,,---,0.00,VWS V13.00,2013-02-07 01:40:00,
2013-02-06 16:45:00,27.9,7.8,29.41,North,1,0.0,0.0,42,0.00,,---,0.00,VWS V13.00,2013-02-07 01:45:00,
2013-02-06 16:50:00,27.9,7.8,29.41,NNE,16,0.0,0.0,42,0.00,,---,0.00,VWS V13.00,2013-02-07 01:50:00,
2013-02-06 16:55:00,27.5,7.4,29.41,North,1,0.0,0.0,42,0.00,,---,0.00,VWS V13.00,2013-02-07 01:55:00,
2013-02-06 17:00:00,27.5,7.4,29.41,NW,321,0.0,0.0,42,0.00,,---,0.00,VWS V13.00,2013-02-07 02:00:00,
2013-02-06 17:05:00,27.3,7.3,29.41,NNE,16,0.0,0.0,42,0.00,,---,0.00,VWS V13.00,2013-02-07 02:05:00,
2013-02-06 17:10:00,27.3,7.3,29.41,NNW,331,0.0,0.0,42,0.00,,---,0.00,VWS V13.00,2013-02-07 02:10:00,
2013-02-06 17:15:00,27.3,7.3,29.41,NW,321,0.0,0.0,42,0.00,,---,0.00,VWS V13.00,2013-02-07 02:15:00,
2013-02-06 17:20:00,27.0,6.9,29.41,NW,321,0.0,0.0,42,0.00,,---,0.00,VWS V13.00,2013-02-07 02:20:00,
2013-02-06 17:25:00,27.0,6.9,29.41,NNE,21,0.0,0.0,42,0.00,,---,0.00,VWS V13.00,2013-02-07 02:25:00,
2013-02-06 17:30:00,26.8,6.8,29.41,NNW,329,0.0,0.0,42,0.00,,---,0.00,VWS V13.00,2013-02-07 02:30:00,
2013-02-06 17:35:00,26.8,6.8,29.41,ENE,60,0.0,0.0,42,0.00,,---,0.00,VWS V13.00,2013-02-07 02:35:00,
2013-02-06 17:40:00,26.4,6.4,29.41,ENE,74,0.0,0.0,42,0.00,,---,0.00,VWS V13.00,2013-02-07 02:40:00,
2013-02-06 17:45:00,26.1,6.1,29.41,ENE,76,0.0,0.0,42,0.00,,---,0.00,VWS V13.00,2013-02-07 02:45:00,
2013-02-06 17:50:00,26.1,6.6,29.41,ENE,77,0.0,0.0,43,0.00,,---,0.00,VWS V13.00,2013-02-07 02:50:00,
2013-02-06 17:55:00,25.9,6.5,29.41,ENE,77,0.0,0.0,43,0.00,,---,0.00,VWS V13.00,2013-02-07 02:55:00,
2013-02-06 18:00:00,25.9,6.5,29.41,ENE,76,0.0,0.0,43,0.00,,---,0.00,VWS V13.00,2013-02-07 03:00:00,
2013-02-06 18:05:00,25.9,6.5,29.41,ENE,76,0.0,0.0,43,0.00,,---,0.00,VWS V13.00,2013-02-07 03:05:00,
2013-02-06 18:10:00,25.5,7.2,29.41,ENE,76,0.0,0.0,45,0.00,,---,0.00,VWS V13.00,2013-02-07 03:10:00,
2013-02-06 18:15:00,25.3,7.0,29.41,ENE,76,0.0,0.0,45,0.00,,---,0.00,VWS V13.00,2013-02-07 03:15:00,
2013-02-06 18:20:00,25.5,7.6,29.41,ENE,76,0.0,0.0,46,0.00,,---,0.00,VWS V13.00,2013-02-07 03:20:00,
2013-02-06 18:25:00,25.5,7.6,29.41,ENE,76,0.0,0.0,46,0.00,,---,0.00,VWS V13.00,2013-02-07 03:25:00,
2013-02-06 18:30:00,25.5,7.6,29.41,ENE,76,0.0,0.0,46,0.00,,---,0.00,VWS V13.00,2013-02-07 03:30:00,
2013-02-06 18:35:00,25.5,7.6,29.41,ENE,76,0.0,0.0,46,0.00,,---,0.00,VWS V13.00,2013-02-07 03:35:00,
2013-02-06 18:40:00,25.3,7.9,29.41,ENE,77,0.0,0.0,47,0.00,,---,0.00,VWS V13.00,2013-02-07 03:40:00,
2013-02-06 18:45:00,25.3,8.4,29.41,ENE,76,0.0,0.0,48,0.00,,---,0.00,VWS V13.00,2013-02-07 03:45:00,
2013-02-06 18:50:00,25.2,8.2,29.41,ENE,76,0.0,0.0,48,0.00,,---,0.00,VWS V13.00,2013-02-07 03:50:00,
2013-02-06 18:55:00,25.2,8.7,29.41,ENE,76,0.0,0.0,49,0.00,,---,0.00,VWS V13.00,2013-02-07 03:55:00,
2013-02-06 19:00:00,25.2,8.7,29.41,ENE,76,0.0,0.0,49,0.00,,---,0.00,VWS V13.00,2013-02-07 04:00:00,
2013-02-06 19:05:00,24.8,8.8,29.38,ENE,76,0.0,0.0,50,0.00,,---,0.00,VWS V13.00,2013-02-07 04:05:00,
2013-02-06 19:10:00,24.8,8.8,29.38,ENE,77,0.0,0.0,50,0.00,,---,0.00,VWS V13.00,2013-02-07 04:10:00,
2013-02-06 19:15:00,25.2,9.6,29.38,ENE,76,0.0,0.0,51,0.00,,---,0.00,VWS V13.00,2013-02-07 04:15:00,
2013-02-06 19:20:00,25.2,9.6,29.38,ENE,76,0.0,0.0,51,0.00,,---,0.00,VWS V13.00,2013-02-07 04:20:00,
2013-02-06 19:25:00,25.7,10.1,29.38,ENE,76,0.0,0.0,51,0.00,,---,0.00,VWS V13.00,2013-02-07 04:25:00,
2013-02-06 19:30:00,25.3,9.8,29.38,ENE,76,0.0,0.0,51,0.00,,---,0.00,VWS V13.00,2013-02-07 04:30:00,
2013-02-06 19:35:00,25.3,9.8,29.38,ENE,76,0.0,0.0,51,0.00,,---,0.00,VWS V13.00,2013-02-07 04:35:00,
2013-02-06 19:40:00,25.3,10.2,29.38,ENE,76,0.0,0.0,52,0.00,,---,0.00,VWS V13.00,2013-02-07 04:40:00,
2013-02-06 19:45:00,25.3,10.2,29.41,ENE,76,0.0,0.0,52,0.00,,---,0.00,VWS V13.00,2013-02-07 04:45:00,
2013-02-06 19:50:00,25.7,10.5,29.38,ENE,76,0.0,0.0,52,0.00,,---,0.00,VWS V13.00,2013-02-07 04:50:00,
2013-02-06 19:55:00,25.7,10.5,29.38,ENE,76,0.0,0.0,52,0.00,,---,0.00,VWS V13.00,2013-02-07 04:55:00,
2013-02-06 20:00:00,26.2,11.4,29.38,ENE,76,0.0,0.0,53,0.00,,---,0.00,VWS V13.00,2013-02-07 05:00:00,
2013-02-06 20:05:00,26.2,11.0,29.38,ENE,76,0.0,0.0,52,0.00,,---,0.00,VWS V13.00,2013-02-07 05:05:00,
2013-02-06 20:10:00,26.2,11.0,29.38,ENE,76,0.0,0.0,52,0.00,,---,0.00,VWS V13.00,2013-02-07 05:10:00,
2013-02-06 20:15:00,26.8,12.0,29.38,ENE,76,0.0,0.0,53,0.00,,---,0.00,VWS V13.00,2013-02-07 05:15:00,
2013-02-06 20:20:00,26.8,12.0,29.38,ENE,76,0.0,0.0,53,0.00,,---,0.00,VWS V13.00,2013-02-07 05:20:00,
2013-02-06 20:25:00,26.8,12.0,29.38,ENE,76,0.0,0.0,53,0.00,,---,0.00,VWS V13.00,2013-02-07 05:25:00,
2013-02-06 20:30:00,27.0,12.1,29.38,ENE,76,0.0,0.0,53,0.00,,---,0.00,VWS V13.00,2013-02-07 05:30:00,
2013-02-06 20:35:00,27.0,12.1,29.38,ENE,76,0.0,0.0,53,0.00,,---,0.00,VWS V13.00,2013-02-07 05:35:00,
2013-02-06 20:40:00,27.1,12.3,29.38,ENE,76,0.0,0.0,53,0.00,,---,0.00,VWS V13.00,2013-02-07 05:40:00,
2013-02-06 20:45:00,27.1,12.3,29.38,ENE,76,0.0,0.0,53,0.00,,---,0.00,VWS V13.00,2013-02-07 05:45:00,
2013-02-06 20:50:00,27.1,12.3,29.38,ENE,76,0.0,0.0,53,0.00,,---,0.00,VWS V13.00,2013-02-07 05:50:00,
2013-02-06 20:55:00,27.3,12.5,29.38,ENE,76,0.0,0.0,53,0.00,,---,0.00,VWS V13.00,2013-02-07 05:55:00,
2013-02-06 21:00:00,27.3,12.5,29.38,ENE,76,0.0,0.0,53,0.00,,---,0.00,VWS V13.00,2013-02-07 06:00:00,
2013-02-06 21:05:00,27.3,12.5,29.38,ENE,76,0.0,0.0,53,0.00,,---,0.00,VWS V13.00,2013-02-07 06:05:00,
2013-02-06 21:10:00,27.3,12.5,29.38,ENE,76,0.0,0.0,53,0.00,,---,0.00,VWS V13.00,2013-02-07 06:10:00,
2013-02-06 21:15:00,27.3,12.5,29.38,ENE,76,0.0,0.0,53,0.00,,---,0.00,VWS V13.00,2013-02-07 06:15:00,
2013-02-06 21:20:00,27.3,12.5,29.38,ENE,76,0.0,0.0,53,0.00,,---,0.00,VWS V13.00,2013-02-07 06:20:00,
2013-02-06 21:25:00,27.7,13.2,29.38,ENE,76,0.0,0.0,54,0.00,,---,0.00,VWS V13.00,2013-02-07 06:25:00,
2013-02-06 21:30:00,27.7,13.2,29.38,ENE,76,0.0,0.0,54,0.00,,---,0.00,VWS V13.00,2013-02-07 06:30:00,
2013-02-06 21:35:00,27.9,13.4,29.38,ENE,76,0.0,0.0,54,0.00,,---,0.00,VWS V13.00,2013-02-07 06:35:00,
2013-02-06 21:40:00,27.7,13.2,29.35,ENE,76,0.0,0.0,54,0.00,,---,0.00,VWS V13.00,2013-02-07 06:40:00,
2013-02-06 21:45:00,27.9,13.4,29.35,ENE,76,0.0,0.0,54,0.00,,---,0.00,VWS V13.00,2013-02-07 06:45:00,
2013-02-06 21:50:00,27.9,13.4,29.35,ENE,76,0.0,0.0,54,0.00,,---,0.00,VWS V13.00,2013-02-07 06:50:00,
2013-02-06 21:55:00,27.9,13.4,29.35,ENE,76,0.0,0.0,54,0.00,,---,0.00,VWS V13.00,2013-02-07 06:55:00,
2013-02-06 22:00:00,27.7,13.2,29.35,ENE,76,0.0,0.0,54,0.00,,---,0.00,VWS V13.00,2013-02-07 07:00:00,
2013-02-06 22:05:00,27.7,13.2,29.35,ENE,76,0.0,0.0,54,0.00,,---,0.00,VWS V13.00,2013-02-07 07:05:00,
2013-02-06 22:10:00,27.3,12.9,29.35,ENE,76,0.0,0.0,54,0.00,,---,0.00,VWS V13.00,2013-02-07 07:10:00,
2013-02-06 22:15:00,27.5,13.1,29.35,ENE,76,0.0,0.0,54,0.00,,---,0.00,VWS V13.00,2013-02-07 07:15:00,
2013-02-06 22:20:00,27.5,13.1,29.35,ENE,76,0.0,0.0,54,0.00,,---,0.00,VWS V13.00,2013-02-07 07:20:00,
2013-02-06 22:25:00,27.5,13.1,29.35,ENE,76,0.0,0.0,54,0.00,,---,0.00,VWS V13.00,2013-02-07 07:25:00,
2013-02-06 22:30:00,27.5,13.1,29.35,ENE,76,0.0,0.0,54,0.00,,---,0.00,VWS V13.00,2013-02-07 07:30:00,
2013-02-06 22:35:00,27.7,13.2,29.35,NE,56,0.0,0.0,54,0.00,,---,0.00,VWS V13.00,2013-02-07 07:35:00,
2013-02-06 22:40:00,27.7,13.2,29.35,NE,56,0.0,0.0,54,0.00,,---,0.00,VWS V13.00,2013-02-07 07:40:00,
2013-02-06 22:45:00,27.7,13.2,29.35,NE,56,0.0,0.0,54,0.00,,---,0.00,VWS V13.00,2013-02-07 07:45:00,
2013-02-06 22:50:00,28.2,13.7,29.35,NE,56,0.0,0.0,54,0.00,,---,0.00,VWS V13.00,2013-02-07 07:50:00,
2013-02-06 22:55:00,28.2,13.7,29.35,NE,56,0.0,0.0,54,0.00,,---,0.00,VWS V13.00,2013-02-07 07:55:00,
2013-02-06 23:00:00,28.2,13.7,29.35,NE,56,0.0,0.0,54,0.00,,---,0.00,VWS V13.00,2013-02-07 08:00:00,
2013-02-06 23:05:00,28.2,13.7,29.35,SSW,212,0.0,0.0,54,0.00,,---,0.00,VWS V13.00,2013-02-07 08:05:00,
2013-02-06 23:10:00,28.2,13.7,29.35,SW,214,0.0,0.0,54,0.00,,---,0.00,VWS V13.00,2013-02-07 08:10:00,
2013-02-06 23:15:00,28.2,13.7,29.35,SW,232,0.0,0.0,54,0.00,,---,0.00,VWS V13.00,2013-02-07 08:15:00,
2013-02-06 23:20:00,27.9,13.4,29.35,SW,232,0.0,0.0,54,0.00,,---,0.00,VWS V13.00,2013-02-07 08:20:00,
2013-02-06 23:25:00,27.9,13.4,29.35,SSW,195,0.0,0.0,54,0.00,,---,0.00,VWS V13.00,2013-02-07 08:25:00,
2013-02-06 23:30:00,27.9,13.4,29.35,SW,229,0.0,0.0,54,0.00,,---,0.00,VWS V13.00,2013-02-07 08:30:00,
2013-02-06 23:35:00,27.7,13.2,29.35,SW,229,0.0,0.0,54,0.00,,---,0.00,VWS V13.00,2013-02-07 08:35:00,
2013-02-06 23:40:00,27.7,13.2,29.35,SW,229,0.0,0.0,54,0.00,,---,0.00,VWS V13.00,2013-02-07 08:40:00,
2013-02-06 23:45:00,27.9,13.8,29.35,SW,229,0.0,0.0,55,0.00,,---,0.00,VWS V13.00,2013-02-07 08:45:00,
2013-02-06 23:50:00,27.9,13.8,29.32,SW,229,0.0,0.0,55,0.00,,---,0.00,VWS V13.00,2013-02-07 08:50:00,
2013-02-06 23:55:00,27.9,13.8,29.32,SW,229,0.0,0.0,55,0.00,,---,0.00,VWS V13.00,2013-02-07 08:55:00,